TimeEST,TemperatureF,Dew PointF,Humidity,Sea Level PressureIn,VisibilityMPH,Wind Direction,Wind SpeedMPH,Gust SpeedMPH,PrecipitationIn,Events,Conditions,WindDirDegrees,DateUTC
12:56 AM,36.0,36.0,100,30.35,6.0,Calm,Calm,-,N/A,,Clear,0,2012-12-01 05:56:00
2:56 AM,35.1,35.1,100,30.36,6.0,Calm,Calm,-,N/A,,Clear,0,2012-12-01 07:56:00
4:56 AM,36.0,36.0,100,30.35,8.0,Calm,Calm,-,N/A,,Clear,0,2012-12-01 09:56:00
5:56 AM,36.0,35.1,97,30.36,7.0,Calm,Calm,-,N/A,,Clear,0,2012-12-01 10:56:00
6:56 AM,36.0,36.0,100,30.38,6.0,Calm,Calm,-,N/A,,Clear,0,2012-12-01 11:56:00
7:56 AM,39.0,39.0,100,30.40,7.0,Calm,Calm,-,N/A,,Clear,0,2012-12-01 12:56:00
8:56 AM,51.1,45.0,80,30.41,10.0,NE,3.5,-,N/A,,Clear,40,2012-12-01 13:56:00
9:56 AM,57.9,43.0,58,30.41,10.0,Calm,Calm,-,N/A,,Clear,0,2012-12-01 14:56:00
10:56 AM,60.1,42.1,51,30.41,10.0,East,4.6,-,N/A,,Clear,80,2012-12-01 15:56:00
11:56 AM,63.0,43.0,48,30.39,10.0,Calm,Calm,-,N/A,,Clear,0,2012-12-01 16:56:00
12:56 PM,61.0,44.1,54,30.36,10.0,South,4.6,-,N/A,,Clear,190,2012-12-01 17:56:00
1:56 PM,61.0,41.0,48,30.35,10.0,ESE,6.9,-,N/A,,Clear,110,2012-12-01 18:56:00
2:56 PM,57.9,43.0,58,30.35,10.0,ESE,10.4,-,N/A,,Clear,120,2012-12-01 19:56:00
3:56 PM,57.0,39.9,53,30.35,10.0,East,6.9,-,N/A,,Clear,90,2012-12-01 20:56:00
4:56 PM,54.0,42.1,64,30.35,10.0,Calm,Calm,-,N/A,,Clear,0,2012-12-01 21:56:00
5:56 PM,46.9,41.0,80,30.37,10.0,Calm,Calm,-,N/A,,Clear,0,2012-12-01 22:56:00
6:56 PM,46.0,42.1,86,30.39,10.0,Calm,Calm,-,N/A,,Clear,0,2012-12-01 23:56:00
7:56 PM,44.1,41.0,89,30.39,8.0,Calm,Calm,-,N/A,,Clear,0,2012-12-02 00:56:00
8:56 PM,43.0,41.0,93,30.40,8.0,Calm,Calm,-,N/A,,Clear,0,2012-12-02 01:56:00
9:56 PM,42.1,41.0,96,30.40,7.0,Calm,Calm,-,N/A,,Clear,0,2012-12-02 02:56:00
10:56 PM,41.0,41.0,100,30.40,7.0,East,3.5,-,N/A,,Clear,80,2012-12-02 03:56:00
11:56 PM,41.0,39.9,96,30.40,5.0,Calm,Calm,-,N/A,,Clear,0,2012-12-02 04:56:00